Location: B?ezina
(49.8085°N, 13.6013°E)
Time: 06:18:49
(UTC+00:00)

Cosmos 1400 Rocket - Pass Details

Date: 19 May 2025
Orbit: 484 x 519 km, 81.1° (Epoch: 22 June)

Event Time Altitude Azimuth Distance (km) Brightness Sun altitude
Rises 19:31:47 0° 181° (S) 2,558 5.8 -6.2°
Reaches altitude 10° 19:33:54 10° 178° (S) 1,677 4.9 -6.4°
Maximum altitude 19:37:31 59° 98° (E) 570 2.7 -6.9°
Drops below altitude 10° 19:41:08 10° 19° (NNE) 1,681 5.6 -7.3°
Sets 19:43:16 0° 16° (NNE) 2,566 6.6 -7.6°
